FW6767 Weather Reports


time (UTC)temp
F
wind
direction
speed
knots
gust
knots
rain 1hr
in
rain 24hr
in
rain mn
in
humidity
%
barometer
mb
20260906071604 71 0 0.0 0.0 0.00 0.00 0.00 95 1012.6
20260906064558 71 0 0.0 0.0 0.00 0.00 0.00 94 1012.6
20260906063102 71 0 0.0 0.0 0.00 0.00 0.00 94 1012.9
20260906061605 71 0 0.0 0.0 0.00 0.00 0.00 94 1013.3
20260906054559 71 0 0.0 0.0 0.00 0.00 0.00 94 1013.6
20260906053100 71 0 0.0 0.9 0.00 0.00 0.00 94 1013.9
20260906051607 71 0 0.0 1.7 0.00 0.00 0.00 94 1014.0
20260906050057 72 0 0.0 0.9 0.00 0.00 0.00 93 1013.9
20260906044604 72 0 0.0 0.9 0.00 0.00 0.00 93 1013.8
20260906043100 72 0 0.0 0.9 0.00 0.00 0.00 93 1013.8
20260906041605 72 0 0.0 1.7 0.00 0.00 0.00 93 1014.0
20260906040113 72 0 0.9 1.7 0.00 0.00 0.00 93 1014.1
20260906034603 72 67 0.0 0.0 0.00 0.00 0.00 93 1014.2
20260906033106 72 0 0.0 0.0 0.00 0.00 0.00 92 1014.1
20260906031601 72 0 0.0 0.0 0.00 0.00 0.00 92 1014.1
20260906030108 73 0 0.0 1.7 0.00 0.00 0.00 92 1013.9
20260906024625 73 0 0.9 1.7 0.00 0.00 0.00 92 1013.6
20260906023104 73 67 0.0 1.7 0.00 0.00 0.00 91 1013.6
20260906021559 73 0 0.0 1.7 0.00 0.00 0.00 91 1014.0
20260906020059 74 0 0.0 1.7 0.00 0.00 0.00 91 1013.8
20260906014612 74 0 0.0 0.0 0.00 0.00 0.00 91 1013.8
20260906013103 74 0 0.0 0.0 0.00 0.00 0.00 90 1013.6
20260906011603 75 0 0.0 0.0 0.00 0.00 0.00 89 1013.5
20260906010119 75 0 0.0 0.0 0.00 0.00 0.00 89 1013.3
20260906004602 75 0 0.0 0.9 0.00 0.00 0.00 89 1013.3
20260906003118 76 67 0.0 1.7 0.00 0.00 0.00 89 1012.7
20260906001558 77 0 0.0 0.9 0.00 0.00 0.00 86 1012.6
20260906000109 78 0 0.0 1.7 0.00 0.00 0.00 85 1012.7
20260905234609 79 0 0.0 1.7 0.00 0.00 0.00 83 1012.5
20260905233102 79 67 0.0 0.9 0.00 0.00 0.00 84 1012.8
20260905231559 79 0 0.0 0.9 0.00 0.00 0.00 83 1012.8
20260905230106 79 67 0.0 0.9 0.00 0.00 0.00 82 1012.7
20260905224602 80 0 0.0 0.9 0.00 0.00 0.00 81 1012.7
20260905223100 81 0 0.9 2.6 0.00 0.00 0.00 76 1012.5
20260905221602 81 0 0.0 1.7 0.00 0.00 0.00 77 1012.5
20260905220109 81 0 0.0 0.9 0.00 0.00 0.00 78 1012.6
20260905214619 82 61 0.0 1.7 0.00 0.00 0.00 74 1012.6
20260905213106 82 0 0.0 1.7 0.00 0.00 0.00 71 1013.1
20260905211614 83 0 0.9 2.6 0.00 0.00 0.00 70 1013.3
20260905210115 82 0 0.9 4.3 0.00 0.00 0.00 72 1013.4
20260905204603 81 0 0.0 0.9 0.00 0.00 0.00 78 1013.2
20260905203111 81 0 0.0 1.7 0.00 0.00 0.00 78 1013.4
20260905201615 82 360 0.0 2.6 0.00 0.00 0.00 71 1013.3
20260905200107 83 54 0.9 3.5 0.00 0.00 0.00 70 1013.8
20260905194605 83 113 0.9 6.1 0.00 0.00 0.00 67 1013.9
20260905193116 85 26 0.9 6.1 0.00 0.00 0.00 66 1014.1
20260905191622 87 28 3.5 13.0 0.00 0.00 0.00 60 1014.2
20260905190108 92 129 4.3 15.6 0.00 0.00 0.00 51 1014.3
20260905184620 99 239 0.0 2.6 0.00 0.00 0.00 44 1013.0
20260905183111 100 173 0.0 1.7 0.00 0.00 0.00 46 1013.2
20260905181605 98 166 0.9 3.5 0.00 0.00 0.00 51 1013.1
20260905180107 96 0 0.0 1.7 0.00 0.00 0.00 55 1013.6
20260905174604 98 0 0.0 2.6 0.00 0.00 0.00 51 1013.6
20260905173103 97 182 0.9 2.6 0.00 0.00 0.00 53 1013.7
20260905171602 97 123 1.7 4.3 0.00 0.00 0.00 53 1013.8
20260905170112 97 242 0.9 1.7 0.00 0.00 0.00 57 1014.1
20260905164602 96 180 0.0 2.6 0.00 0.00 0.00 57 1014.3
20260905163106 95 311 0.9 2.6 0.00 0.00 0.00 56 1014.7
20260905161600 94 96 0.0 1.7 0.00 0.00 0.00 67 1014.9
20260905160059 92 0 0.0 1.7 0.00 0.00 0.00 65 1014.8
20260905154606 91 0 0.0 2.6 0.00 0.00 0.00 68 1015.0
20260905153103 89 266 0.0 2.6 0.00 0.00 0.00 70 1015.1
20260905151603 89 86 0.9 3.5 0.00 0.00 0.00 70 1015.3
20260905150059 87 74 0.0 1.7 0.00 0.00 0.00 74 1015.3
20260905144602 85 74 0.9 2.6 0.00 0.00 0.00 76 1015.2
20260905143105 85 0 0.0 0.9 0.00 0.00 0.00 80 1015.3
20260905141600 84 53 0.9 1.7 0.00 0.00 0.00 80 1015.4
20260905140100 83 53 0.0 1.7 0.00 0.00 0.00 83 1015.6
20260905134603 82 0 0.0 1.7 0.00 0.00 0.00 84 1015.7
20260905133101 82 0 0.0 0.0 0.00 0.00 0.00 85 1015.9
20260905131559 81 0 0.0 0.0 0.00 0.00 0.00 89 1015.6
20260905130101 79 0 0.0 0.0 0.00 0.00 0.00 91 1015.6
20260905124601 76 0 0.0 0.0 0.00 0.00 0.00 97 1015.5
20260905123105 74 0 0.0 0.0 0.00 0.00 0.00 97 1015.6
20260905121602 74 0 0.0 0.0 0.00 0.00 0.00 97 1015.7
20260905120105 73 0 0.0 0.0 0.00 0.00 0.00 96 1015.6
20260905114557 73 0 0.0 0.0 0.00 0.00 0.00 96 1015.3
20260905113106 73 0 0.0 0.0 0.00 0.00 0.00 96 1015.2
20260905111646 73 0 0.0 0.0 0.00 0.00 0.00 96 1015.0
20260905104604 73 0 0.0 0.0 0.00 0.00 0.00 96 1014.6
20260905103118 73 0 0.0 0.0 0.00 0.00 0.00 96 1014.7
20260905101607 73 0 0.0 0.0 0.00 0.00 0.00 96 1014.4
20260905100121 74 0 0.0 0.0 0.00 0.00 0.00 96 1014.3
20260905094604 74 0 0.0 0.9 0.00 0.00 0.00 96 1014.4
20260905093118 74 0 0.0 0.9 0.00 0.00 0.00 96 1014.3
20260905091613 74 0 0.0 0.9 0.00 0.00 0.00 96 1014.5
20260905090103 74 0 0.0 0.0 0.00 0.00 0.00 96 1014.6
20260905084600 74 0 0.0 0.0 0.00 0.00 0.00 95 1014.5
20260905083102 74 0 0.0 0.0 0.00 0.00 0.00 95 1014.5
20260905081604 75 0 0.0 0.9 0.00 0.00 0.00 96 1014.9
20260905080104 75 0 0.0 0.9 0.00 0.00 0.00 96 1015.0
20260905074600 75 0 0.0 0.0 0.00 0.00 0.00 95 1015.1
20260905073103 75 337 0.0 0.9 0.00 0.00 0.00 95 1015.0